Harvey, ND

9:30 AM CST on January 16, 2017 (GMT -0600)
Harvey

Weather History for K5H4 - September, 2012

Change the Weather History Date:

Sunday, September 30, 2012

  Actual Average (KRUG) Record (KRUG)
Temperature  
Mean Temperature 62 °F -  
Max Temperature 75 °F 65 °F 95 °F (1989)
Min Temperature 48 °F 37 °F 20 °F (1984)
Degree Days  
Heating Degree Days 4    
Growing Degree Days 12 (Base 50)    
Moisture  
Dew Point 42 °F    
Average Humidity 49    
Maximum Humidity 94    
Minimum Humidity 32    
Precipitation  
Precipitation 0.01 in - - ()
Sea Level Pressure  
Sea Level Pressure 29.95 in    
Wind  
Wind Speed 12 mph (WNW)    
Max Wind Speed 25 mph    
Max Gust Speed 29 mph    
Visibility 10 miles    
Events Rain    
Averages and records for this station are not official NWS values.
T = Trace of Precipitation, MM = Missing Value Source: NWS Daily Summary

Daily Weather History Graph

Daily Weather History Graph

Search for Another Location

Airport or City:

Trip Planner

Search our weather history database for the weather conditions in past years. The results will help you decide how hot, cold, wet, or windy it might be!

Date:

Astronomy

Sep. 30, 2012 Rise Set
Actual Time 7:38 AM CDT 7:19 PM CDT
Civil Twilight 7:07 AM CDT 7:50 PM CDT
Nautical Twilight 6:31 AM CDT 8:26 PM CDT
Astronomical Twilight 5:54 AM CDT 9:03 PM CDT
Moon 7:16 PM CDT (9/30) 8:16 AM CDT (9/30)
Length of Visible Light 12h 43m
Length of Day
11h 41m
Full, 100% of the Moon is Illuminated
Sep 30
Full
Oct 8
Last Quarter
Oct 15
New
Oct 21
First Quarter
Oct 29
Full

Hourly Weather History & Observations

Time (CDT) Temp. Dew Point Humidity Pressure Visibility Wind Dir Wind Speed Gust Speed Precip Events Conditions
12:15 AM 62.6 °F 39.2 °F 42% 29.91 in 10.0 mi South 9.2 mph - N/A   Clear
12:55 AM 64.4 °F 37.4 °F 37% 29.91 in 10.0 mi SSW 8.1 mph - N/A   Clear
1:15 AM 66.2 °F 37.4 °F 35% 29.91 in 10.0 mi SSW 6.9 mph - N/A   Clear
1:35 AM 64.4 °F 35.6 °F 34% 29.90 in 10.0 mi SSW 13.8 mph 18.4 mph N/A   Clear
1:55 AM 66.2 °F 35.6 °F 32% 29.90 in 10.0 mi SSW 10.4 mph - N/A   Clear
2:15 AM 64.4 °F 35.6 °F 34% 29.91 in 10.0 mi SW 6.9 mph - N/A   Clear
2:35 AM 62.6 °F 37.4 °F 39% 29.91 in 10.0 mi SW 11.5 mph - N/A   Clear
2:55 AM 59.0 °F 37.4 °F 45% 29.91 in 10.0 mi SW 11.5 mph - N/A   Clear
3:15 AM 59.0 °F 37.4 °F 45% 29.90 in 10.0 mi SW 10.4 mph - N/A   Clear
3:35 AM 59.0 °F 37.4 °F 45% 29.90 in 10.0 mi SW 11.5 mph - N/A   Clear
3:55 AM 57.2 °F 37.4 °F 48% 29.90 in 10.0 mi SW 9.2 mph - N/A   Clear
4:15 AM 57.2 °F 37.4 °F 48% 29.89 in 10.0 mi SW 9.2 mph - N/A   Clear
4:35 AM 55.4 °F 37.4 °F 51% 29.89 in 10.0 mi SW 9.2 mph - N/A   Clear
4:55 AM 53.6 °F 37.4 °F 54% 29.89 in 10.0 mi WSW 6.9 mph - N/A   Clear
5:15 AM 51.8 °F 37.4 °F 58% 29.89 in 10.0 mi WSW 9.2 mph - N/A   Clear
5:35 AM 53.6 °F 37.4 °F 54% 29.89 in 10.0 mi WSW 6.9 mph - N/A   Clear
5:55 AM 50.0 °F 37.4 °F 62% 29.90 in 10.0 mi WSW 8.1 mph - N/A   Clear
6:15 AM 50.0 °F 37.4 °F 62% 29.90 in 10.0 mi West 6.9 mph - N/A   Clear
6:35 AM 50.0 °F 37.4 °F 62% 29.90 in 10.0 mi West 9.2 mph - N/A   Clear
6:55 AM 51.8 °F 37.4 °F 58% 29.90 in 10.0 mi WSW 9.2 mph - N/A   Clear
7:15 AM 50.0 °F 37.4 °F 62% 29.90 in 10.0 mi WSW 6.9 mph - N/A   Clear
7:35 AM 48.2 °F 37.4 °F 66% 29.90 in 10.0 mi WSW 6.9 mph - N/A   Clear
7:55 AM 48.2 °F 37.4 °F 66% 29.91 in 10.0 mi West 8.1 mph - N/A   Clear
8:15 AM 51.8 °F 39.2 °F 62% 29.92 in 10.0 mi West 9.2 mph - N/A   Clear
8:35 AM 53.6 °F 39.2 °F 58% 29.92 in 10.0 mi West 5.8 mph - N/A   Clear
9:15 AM 59.0 °F 41.0 °F 51% 29.93 in 10.0 mi West 11.5 mph - N/A   Clear
9:35 AM 60.8 °F 44.6 °F 55% 29.93 in 10.0 mi WNW 12.7 mph 17.3 mph N/A   Clear
10:15 AM 62.6 °F 44.6 °F 52% 29.94 in 10.0 mi WNW 13.8 mph 17.3 mph N/A   Clear
10:35 AM 64.4 °F 44.6 °F 49% 29.94 in 10.0 mi NW 13.8 mph - N/A   Clear
10:55 AM 64.4 °F 46.4 °F 52% 29.94 in 10.0 mi WNW 12.7 mph - N/A   Clear
11:15 AM 66.2 °F 46.4 °F 49% 29.94 in 10.0 mi WNW 12.7 mph 17.3 mph N/A   Clear
11:35 AM 68.0 °F 46.4 °F 46% 29.94 in 10.0 mi NW 16.1 mph - N/A   Clear
11:55 AM 68.0 °F 46.4 °F 46% 29.93 in 10.0 mi WNW 16.1 mph 20.7 mph N/A   Clear
12:15 PM 69.8 °F 48.2 °F 46% 29.93 in 10.0 mi NW 15.0 mph 21.9 mph N/A   Clear
12:35 PM 71.6 °F 48.2 °F 43% 29.93 in 10.0 mi NW 18.4 mph 24.2 mph N/A   Clear
12:55 PM 71.6 °F 48.2 °F 43% 29.93 in 10.0 mi NW 17.3 mph 24.2 mph N/A   Clear
1:15 PM 73.4 °F 48.2 °F 41% 29.93 in 10.0 mi NW 18.4 mph 23.0 mph N/A   Clear
1:35 PM 73.4 °F 48.2 °F 41% 29.93 in 10.0 mi NW 18.4 mph 21.9 mph N/A   Clear
1:55 PM 73.4 °F 48.2 °F 41% 29.92 in 10.0 mi NNW 19.6 mph - N/A   Clear
2:15 PM 73.4 °F 48.2 °F 41% 29.92 in 10.0 mi NW 18.4 mph 25.3 mph N/A   Clear
2:35 PM 75.2 °F 46.4 °F 36% 29.92 in 10.0 mi NNW 19.6 mph 24.2 mph N/A   Clear
2:55 PM 73.4 °F 46.4 °F 38% 29.92 in 10.0 mi NNW 20.7 mph 27.6 mph N/A   Clear
3:15 PM 73.4 °F 46.4 °F 38% 29.93 in 10.0 mi NW 19.6 mph 26.5 mph N/A   Clear
3:35 PM 75.2 °F 46.4 °F 36% 29.93 in 10.0 mi NNW 18.4 mph 25.3 mph N/A   Clear
3:55 PM 73.4 °F 44.6 °F 36% 29.93 in 10.0 mi NNW 16.1 mph 24.2 mph N/A   Clear
4:15 PM 73.4 °F 42.8 °F 33% 29.94 in 10.0 mi NW 17.3 mph 24.2 mph N/A   Clear
4:35 PM 71.6 °F 41.0 °F 33% 29.94 in 10.0 mi NNW 16.1 mph 23.0 mph N/A   Clear
4:55 PM 71.6 °F 41.0 °F 33% 29.95 in 10.0 mi NNW 17.3 mph 25.3 mph N/A   Clear
5:15 PM 69.8 °F 41.0 °F 35% 29.96 in 10.0 mi NNW 18.4 mph 23.0 mph N/A   Clear
5:35 PM 68.0 °F 42.8 °F 40% 29.96 in 10.0 mi NNW 16.1 mph 21.9 mph N/A   Clear
5:55 PM 68.0 °F 42.8 °F 40% 29.96 in 10.0 mi NNW 19.6 mph 24.2 mph N/A   Clear
6:15 PM 66.2 °F 41.0 °F 40% 29.97 in 10.0 mi NNW 18.4 mph 24.2 mph N/A   Clear
6:35 PM 66.2 °F 37.4 °F 35% 29.97 in 10.0 mi NNW 16.1 mph 23.0 mph N/A   Clear
7:15 PM 64.4 °F 37.4 °F 37% 29.99 in 10.0 mi NNW 12.7 mph 19.6 mph N/A   Clear
7:35 PM 62.6 °F 37.4 °F 39% 30.00 in 10.0 mi NNW 11.5 mph 18.4 mph N/A   Clear
7:55 PM 62.6 °F 37.4 °F 39% 30.01 in 10.0 mi NNW 12.7 mph - N/A   Clear
8:15 PM 62.6 °F 37.4 °F 39% 30.01 in 10.0 mi NNW 11.5 mph - N/A   Clear
8:35 PM 60.8 °F 39.2 °F 45% 30.03 in 10.0 mi NW 10.4 mph - N/A   Clear
8:55 PM 59.0 °F 37.4 °F 45% 30.04 in 10.0 mi NW 11.5 mph - N/A   Partly Cloudy
9:15 PM 60.8 °F 39.2 °F 45% 30.04 in 10.0 mi NW 12.7 mph - N/A   Scattered Clouds
9:35 PM 60.8 °F 41.0 °F 48% 30.05 in 10.0 mi NW 17.3 mph 23.0 mph N/A   Scattered Clouds
10:15 PM 59.0 °F 44.6 °F 59% 30.06 in 10.0 mi NNW 18.4 mph 25.3 mph N/A   Scattered Clouds
10:35 PM 57.2 °F 46.4 °F 67% 30.07 in 10.0 mi NNW 25.3 mph 28.8 mph N/A   Clear
10:55 PM 53.6 °F 50.0 °F 88% 30.08 in 7.0 mi NNW 17.3 mph 21.9 mph 0.01 in Rain Light Rain
11:15 PM 53.6 °F 50.0 °F 88% 30.08 in 10.0 mi NNW 11.5 mph - N/A Rain Light Rain
11:35 PM 51.8 °F 50.0 °F 94% 30.08 in 10.0 mi NNW 10.4 mph - N/A   Overcast
11:55 PM 51.8 °F 50.0 °F 94% 30.09 in 10.0 mi NW 10.4 mph - N/A   Mostly Cloudy